Flag for Norway Weather past 2 weeks in Larvik, Norway

Now
48 °F

Scattered showers. Passing clouds.


Feels Like: 44 °F
Forecast: 44 / 54 °F
Wind: 10 mph from South

Location: Torp

Current Time: May 6, 2015 at 11:35:35 PM

Latest Report: May 6, 2015 at 10:50 PM


Visibility: 5 mi

Pressure: 29.65 "Hg

Humidity: 94%

Dew point: 46 °F

Location of LarvikLocation

Historic Weather in Larvik — Graph

°F

Larvik temperature yesterday

Maximum temperature yesterday: 52 °F (at 6:20 PM)
Minimum temperature yesterday: 43 °F (at 12:20 AM)
Average temperature yesterday: 47 °F

Past Weeks' High & Low Weather Summary

 TemperatureHumidityPressure
High66 °F (Apr 22, 4:50 PM)100% (Apr 25, 11:50 AM)30.24 "Hg (Apr 25, 11:50 AM)
Low30 °F (Apr 28, 5:50 AM)18% (Apr 23, 2:50 PM)29.39 "Hg (Apr 25, 6:50 PM)
Average46 °F69%29.73 "Hg
* Reported Apr 21 9:20 PM — May 6 9:50 PM, Larvik, Weather by CustomWeather, © 2015

Note: Actual official high and low records may vary slightly from our data, if they occured in-between our weather recording intervals... More about our weather records

Advertising

Larvik weather history for previous 24 hours

 ConditionsComfort  
Time TempWeatherWind HumidityBarometerVisibility
9:50 PM
Wed, May 6
48 °FScattered showers. Partly sunny.12 mph94%29.65 "Hg4 mi
9:20 PM48 °FPartly sunny.12 mph94%29.65 "Hg6 mi
8:50 PM48 °FPartly sunny.13 mph94%29.65 "Hg6 mi
8:20 PM48 °FPartly sunny.12 mph94%29.65 "Hg6 mi
7:50 PM48 °FPartly sunny.14 mph94%29.65 "Hg6 mi
7:20 PM50 °FBroken clouds.14 mph88%29.65 "Hg6 mi
6:50 PM50 °FBroken clouds.14 mph88%29.65 "Hg6 mi
6:20 PM50 °FPartly sunny.17 mph88%29.65 "HgN/A
5:50 PM50 °FPartly sunny.16 mph88%29.65 "Hg6 mi
5:20 PM50 °FBroken clouds.18 mph88%29.65 "Hg6 mi
4:50 PM52 °FBroken clouds.18 mph82%29.65 "HgN/A
4:20 PM52 °FPartly sunny.21 mph82%29.65 "HgN/A
3:50 PM52 °FPartly sunny.20 mph82%29.65 "Hg6 mi
3:20 PM52 °FPartly sunny.18 mph82%29.65 "HgN/A
2:50 PM52 °FPartly sunny.18 mph82%29.62 "Hg6 mi
2:20 PM52 °FBroken clouds.18 mph82%29.62 "Hg6 mi
1:50 PM50 °FBroken clouds.20 mph88%29.62 "Hg6 mi
1:20 PM52 °FBroken clouds.20 mph82%29.62 "Hg6 mi
12:50 PM52 °FScattered clouds.18 mph82%29.62 "Hg6 mi
12:20 PM52 °FPartly sunny.17 mph82%29.59 "Hg6 mi
11:50 AM52 °FOvercast.16 mph82%29.59 "Hg5 mi
11:20 AM50 °FBroken clouds.18 mph88%29.59 "Hg6 mi
10:50 AM50 °FBroken clouds.14 mph88%29.59 "Hg6 mi
10:20 AM50 °FBroken clouds.15 mph88%29.59 "Hg6 mi
9:50 AM50 °FBroken clouds.14 mph88%29.59 "HgN/A
9:20 AM50 °FPartly sunny.14 mph88%29.56 "Hg6 mi
8:50 AM50 °FScattered clouds.14 mph88%29.56 "HgN/A
8:20 AM48 °FSnow. Scattered clouds.15 mph87%29.56 "HgN/A
7:50 AM48 °FPassing clouds.13 mph87%29.53 "HgN/A
7:20 AM46 °FPassing clouds.14 mph93%29.53 "HgN/A
6:50 AM46 °FPassing clouds.13 mph93%29.53 "HgN/A
6:20 AM46 °FPassing clouds.13 mph93%29.50 "HgN/A
5:50 AM46 °FPassing clouds.13 mph93%29.50 "HgN/A
Weather by CustomWeather, © 2015

See weather overviewHow to use our weather pages